Wind_Speed
14 15 15 16 16 17 17 17 17 17 17 17 17 17 17 17 17 17 18 18 19 20 20 21 21 21 21 21 22 23 24 26 28 31 33 35 36 37 38 38 38 38 38 38 38 38 37 37 36 35 33 31 31 30 30 29 27 22 20 17 15 15 14 11 10 11 10 7 1 6 11 13 15 14 17 18 21 23 23 24 24 24 25 24 24 25 23 22
16 17 17 18 18 19 19 19 19 19 19 19 19 19 19 19 19 19 19 19 20 21 22 22 22 23 22 22 22 23 24 25 27 29 31 33 35 37 38 38 38 39 39 39 39 39 39 38 37 36 34 33 32 32 32 31 28 24 19 18 18 16 13 11 11 13 12 9 2 8 9 12 13 13 15 16 20 22 23 24 23 24 24 24 25 25 25 23
18 19 19 20 20 21 21 21 21 21 21 22 22 22 22 22 22 21 21 21 22 22 23 23 24 24 24 24 24 24 24 25 26 28 30 32 33 35 37 38 39 40 40 39 40 40 40 40 39 37 35 34 34 33 33 32 30 26 21 19 18 17 14 11 12 13 10 5 3 5 6 11 11 12 13 14 18 20 21 23 23 23 24 24 25 26 26 25
20 21 21 22 22 23 23 24 24 24 24 24 24 24 24 24 24 24 24 24 24 24 24 24 24 25 26 26 26 26 26 26 27 28 29 31 32 34 36 38 39 40 40 40 41 41 42 41 40 39 37 36 36 35 35 33 31 28 24 21 19 20 18 14 14 14 11 4 3 1 7 9 10 13 12 12 16 18 20 22 22 23 23 24 25 26 26 26
23 23 24 24 24 24 25 25 26 26 26 26 26 26 26 26 26 26 26 26 26 26 26 26 26 26 26 27 28 28 27 27 28 28 28 30 32 33 35 37 39 40 41 41 41 42 42 42 42 40 39 38 37 36 36 35 33 30 27 23 20 20 20 19 18 19 15 6 3 5 10 9 10 12 10 11 14 16 18 20 22 22 23 24 25 26 26 26
25 26 26 26 26 26 26 27 27 28 28 28 28 28 28 28 28 29 29 29 29 29 29 29 28 27 27 28 29 29 29 30 30 29 30 30 31 31 33 36 38 40 41 42 42 42 43 43 43 42 41 40 39 38 37 36 35 33 30 25 22 21 22 22 22 22 17 11 10 13 13 9 8 9 8 10 12 15 17 19 21 21 22 23 24 26 26 26
27 28 28 28 28 28 28 29 29 30 30 30 30 30 30 30 31 31 31 31 31 32 31 31 30 30 30 29 30 30 31 32 32 32 32 31 31 31 32 34 37 39 41 42 43 43 43 44 44 43 43 42 41 40 38 38 37 34 31 27 25 23 23 23 22 20 17 16 17 15 11 8 7 9 8 9 11 13 15 17 19 20 21 22 23 25 26 26
28 29 29 29 29 29 30 30 31 31 31 32 32 32 32 32 33 33 33 33 34 34 34 33 33 32 32 32 32 32 33 34 34 34 34 33 32 32 32 33 36 38 40 42 44 44 44 44 44 44 44 43 43 41 39 39 38 36 33 31 27 24 23 24 22 20 18 18 18 15 8 7 9 11 10 8 9 11 14 16 18 20 20 21 22 24 25 26
29 29 30 30 30 30 31 32 32 33 33 33 34 34 34 34 34 34 35 35 36 36 36 36 35 35 34 34 34 34 35 36 35 35 35 35 34 34 34 34 35 37 39 42 45 45 44 44 44 45 46 45 45 43 42 40 40 39 35 32 28 25 25 24 22 21 20 19 18 18 13 11 12 11 11 9 8 9 12 14 16 19 19 20 21 23 25 25
29 29 30 30 31 31 32 32 33 33 34 35 35 36 36 36 36 36 37 37 38 38 38 38 38 37 36 37 37 38 39 38 36 36 37 37 37 37 36 36 36 38 40 43 45 46 44 44 44 46 47 47 46 45 44 42 42 41 38 35 29 25 26 24 23 22 21 19 19 19 18 16 12 10 12 10 7 7 10 13 15 18 19 19 20 22 24 24
29 29 30 30 31 32 33 33 33 34 35 36 36 37 37 37 38 38 39 39 39 40 40 40 40 40 39 39 40 41 42 40 38 39 39 39 39 39 39 38 38 39 41 44 46 46 45 45 45 47 48 49 49 48 47 44 44 42 40 38 31 26 26 25 24 23 23 22 22 21 20 16 12 10 12 9 7 6 7 11 13 16 18 19 19 21 23 24
30 30 31 31 32 32 33 33 34 35 36 37 37 38 38 39 40 40 41 41 41 41 42 42 42 42 42 42 43 44 44 43 41 41 41 41 41 41 42 41 40 41 42 44 46 47 46 46 46 47 49 51 51 50 49 46 45 44 42 40 36 30 26 25 25 25 26 25 25 25 21 17 16 13 11 8 8 6 6 9 12 14 16 17 18 20 22 24
32 32 32 32 33 33 34 34 35 36 37 38 39 39 40 41 41 42 42 43 43 43 44 44 44 44 44 44 45 46 46 45 44 42 42 43 43 43 43 43 43 43 44 45 46 47 47 47 47 48 51 53 53 52 50 49 47 46 44 42 41 34 27 27 26 25 28 29 28 25 21 19 19 15 10 9 9 7 5 7 10 12 14 16 17 18 21 23
33 33 33 33 34 35 35 36 37 38 39 40 40 41 42 42 43 43 44 44 44 45 45 45 45 46 46 46 47 48 48 47 46 43 43 45 45 44 45 45 46 46 45 45 45 47 47 48 48 49 52 53 54 54 52 51 48 47 46 45 44 37 30 30 29 26 29 30 27 25 23 20 19 16 11 9 10 8 5 5 8 10 12 14 15 17 19 22
35 34 34 34 35 36 37 37 38 39 40 41 41 42 43 43 44 44 45 45 45 46 46 46 47 47 47 48 48 48 48 48 47 45 44 46 47 46 46 47 47 48 47 46 46 47 48 48 49 50 52 54 56 56 54 53 51 49 48 47 45 40 33 33 34 32 31 29 25 25 24 20 20 18 12 11 13 10 5 4 7 9 10 12 13 15 17 20
37 36 36 36 37 38 38 39 40 41 41 42 42 43 43 43 44 44 45 45 45 46 46 46 46 47 47 47 47 46 47 47 47 47 45 46 48 48 48 48 49 50 50 49 47 46 48 49 50 51 53 56 57 57 56 55 53 51 51 49 46 41 36 34 36 36 33 30 28 27 26 22 21 19 14 13 15 12 6 3 5 7 9 10 11 13 15 19
39 38 38 38 39 40 40 41 42 42 42 43 42 42 42 42 43 43 44 44 44 45 45 45 45 45 45 45 45 45 45 45 46 47 46 47 49 50 49 49 50 51 51 51 48 47 49 50 51 52 55 58 59 59 59 57 56 54 53 52 49 43 38 35 36 36 35 34 34 32 30 25 22 20 16 14 14 13 8 5 5 6 7 8 9 11 14 17
41 41 41 41 41 41 42 42 42 42 42 42 41 41 41 41 41 41 42 42 42 42 41 42 42 42 43 42 43 43 43 44 44 45 46 47 49 50 50 50 50 51 52 52 51 50 50 52 52 53 56 58 60 62 61 60 58 56 54 54 52 45 39 36 36 36 37 37 37 35 31 26 23 22 19 15 14 14 11 7 5 5 6 6 8 9 12 15
44 43 43 43 43 42 42 42 41 41 40 39 39 39 39 39 39 39 39 38 38 38 38 38 39 40 41 41 41 42 43 44 44 45 47 47 49 51 51 51 51 51 53 54 54 53 52 53 53 53 56 60 62 64 64 62 60 59 57 56 55 49 42 38 36 36 37 37 34 32 31 27 24 23 21 18 13 12 12 9 7 5 5 4 5 7 9 13
45 45 44 44 43 42 41 40 39 38 37 37 37 37 37 36 36 35 35 34 34 34 36 37 38 40 41 42 43 44 45 46 47 48 49 50 51 53 54 54 53 53 54 55 56 56 54 54 53 54 57 63 65 66 65 63 62 61 58 57 57 52 47 42 37 36 36 35 32 30 31 29 26 24 23 21 15 11 12 11 8 6 5 3 3 5 7 11
47 46 45 43 42 40 39 37 36 35 35 35 34 34 34 33 32 32 31 31 32 34 36 39 41 43 45 46 47 48 50 51 52 52 53 54 55 57 58 58 58 58 58 58 58 58 57 55 55 57 60 65 67 66 66 65 64 62 60 58 57 55 50 45 40 37 35 35 32 31 32 32 29 27 26 23 17 13 12 12 11 8 6 3 1 3 6 9
47 45 43 42 39 37 36 34 34 34 33 32 32 31 31 30 30 30 30 31 33 36 39 42 45 47 49 50 52 53 54 55 56 57 57 58 59 60 62 62 63 63 62 61 60 60 60 59 60 60 62 66 68 66 66 67 65 63 62 60 59 57 52 48 44 39 36 35 35 34 33 33 33 31 28 25 20 16 13 13 12 10 8 5 1 2 5 8
45 43 41 39 36 34 33 33 32 31 30 29 29 29 29 29 29 30 31 33 35 38 41 44 47 50 52 54 55 57 58 58 59 59 60 60 62 63 64 65 66 66 65 64 64 64 65 65 65 64 64 67 68 67 67 68 67 65 63 62 61 59 55 51 47 42 38 36 35 34 32 32 32 31 29 27 23 19 15 13 14 13 10 7 3 2 4 6
43 41 39 36 34 33 32 31 30 28 27 27 27 27 28 30 31 32 34 36 38 41 44 47 49 52 54 56 57 58 58 58 58 59 60 60 61 62 64 66 67 68 68 68 68 69 71 70 68 66 65 67 69 68 68 69 69 67 65 63 62 61 58 54 48 43 40 37 33 32 32 32 31 31 31 29 26 23 19 15 14 15 12 8 5 3 4 5
40 38 35 33 32 32 31 29 27 25 25 25 26 27 29 31 33 35 37 39 41 43 46 49 51 53 54 56 56 56 55 55 54 55 56 57 58 60 62 65 67 69 70 71 72 73 74 72 70 68 67 68 69 68 69 72 72 70 67 65 64 63 61 56 49 45 41 37 33 33 34 33 31 31 32 31 28 26 24 18 15 16 15 10 7 4 4 5
37 35 34 32 31 30 29 26 24 24 24 25 27 29 31 33 35 37 40 42 44 46 48 51 52 53 54 54 54 53 52 51 51 51 51 53 54 57 60 63 66 69 70 72 74 74 74 74 73 72 70 70 70 69 71 74 74 71 68 66 65 64 63 57 50 47 44 37 35 35 36 34 32 32 32 32 30 27 26 21 17 18 16 13 10 7 5 5
35 34 32 31 30 28 26 23 22 23 24 26 28 30 32 35 37 39 41 44 47 49 50 52 53 53 53 52 51 50 48 48 48 48 48 49 51 53 56 60 63 67 70 73 75 76 76 76 76 75 73 71 70 70 73 75 75 73 70 68 67 65 64 59 52 49 46 40 38 37 37 35 33 34 34 33 31 28 26 22 19 21 19 15 12 9 7 6
34 32 30 29 28 26 22 21 22 23 25 28 30 32 34 36 38 41 44 47 51 52 53 53 53 52 51 51 49 47 46 45 46 46 46 48 49 51 54 57 61 65 69 74 77 78 78 78 78 78 75 72 71 73 75 77 77 74 72 69 67 66 64 59 54 52 48 43 40 39 38 37 36 36 37 35 33 29 27 23 21 22 22 18 15 12 10 8
31 29 28 27 26 23 20 20 22 24 27 29 32 33 35 38 40 43 47 50 53 55 54 53 51 50 49 49 47 44 42 42 42 42 43 45 48 50 53 56 60 65 70 74 77 79 80 80 79 79 77 75 75 77 77 78 78 76 74 71 69 67 65 60 55 54 53 47 42 40 39 40 39 38 38 36 33 30 28 25 23 23 23 21 18 14 12 9
29 27 26 25 23 20 19 20 23 26 28 31 34 35 38 40 42 45 48 52 54 56 55 52 49 48 48 45 42 40 37 37 37 38 39 42 44 48 52 56 60 65 70 74 77 81 82 81 80 80 79 79 79 79 79 80 80 78 75 72 71 68 67 66 59 58 57 51 45 43 41 42 42 40 39 37 36 35 31 28 26 24 24 24 21 17 14 11
26 25 24 22 20 19 19 21 24 27 30 33 35 38 40 43 46 49 51 53 55 55 55 52 49 48 46 41 37 34 33 32 33 34 35 38 41 45 49 54 59 65 71 75 79 82 83 82 82 83 84 83 81 80 80 81 81 79 76 74 73 70 71 73 66 61 59 54 50 48 44 43 44 42 41 40 40 38 35 32 30 26 24 24 23 19 16 13
24 23 21 20 18 18 19 22 25 29 32 35 37 40 43 45 48 52 54 55 55 54 52 51 51 48 42 36 33 30 29 29 30 31 32 35 38 42 46 50 56 63 70 77 81 83 84 85 85 86 87 85 81 79 79 80 81 80 77 75 75 74 74 76 70 62 59 55 52 51 45 44 45 44 43 42 41 39 37 36 33 29 25 24 24 21 18 16
22 21 19 18 17 18 20 23 26 30 33 36 39 42 45 48 51 54 56 56 56 53 50 50 51 48 40 33 30 28 26 26 27 28 30 32 35 39 42 46 52 59 68 76 82 84 86 87 87 86 87 85 82 79 79 79 80 80 79 77 78 78 77 76 71 64 61 56 54 52 47 45 46 46 45 43 41 39 38 37 35 31 26 25 25 23 21 19
20 19 18 17 17 18 20 24 27 31 34 37 41 44 47 50 53 55 57 58 56 53 50 50 50 46 39 32 28 26 24 24 25 27 28 31 33 36 39 43 49 56 64 72 81 87 89 89 88 86 86 86 83 81 81 82 82 82 82 81 80 80 78 76 71 67 63 58 54 54 49 46 47 47 46 45 42 40 38 37 35 32 28 26 26 26 24 23
19 18 17 17 17 19 21 25 29 32 35 39 42 45 48 51 55 56 57 58 55 52 51 51 49 43 37 32 28 24 22 22 22 24 27 29 31 34 37 41 45 50 58 68 78 86 90 90 89 87 87 88 86 85 84 84 84 83 83 82 82 82 80 77 73 69 66 59 55 55 50 47 48 47 46 45 42 41 38 36 35 33 29 27 27 28 26 25
18 17 17 17 18 20 22 26 30 33 36 39 43 46 49 52 55 56 57 56 54 51 51 51 49 42 36 32 26 22 21 20 20 21 24 27 29 31 35 38 42 48 56 65 73 83 90 92 90 88 88 89 89 87 85 84 84 84 84 83 83 82 80 78 74 71 68 60 56 55 51 49 50 48 47 46 44 42 40 37 37 36 33 30 29 30 28 26
17 17 17 18 19 21 24 27 30 34 37 40 43 46 50 53 55 56 56 54 52 51 51 51 48 42 36 31 24 21 21 21 19 20 22 24 26 29 32 35 41 48 55 62 69 78 88 92 90 89 89 90 89 87 86 86 86 85 85 84 84 83 81 80 77 73 70 63 57 56 53 51 52 50 48 48 46 44 42 39 38 38 35 33 32 31 29 28
17 17 18 18 20 22 25 28 31 34 37 40 43 46 49 52 54 55 54 51 50 50 51 51 48 41 35 29 22 19 20 21 19 18 19 21 24 26 29 33 38 44 51 59 66 73 83 90 91 90 90 90 90 88 87 88 88 88 88 86 86 86 84 84 81 75 71 66 58 56 55 54 53 52 50 49 47 45 43 41 39 39 37 34 34 32 30 30
17 17 18 19 21 24 26 29 32 35 38 40 43 46 49 50 52 54 53 49 48 50 52 52 48 41 34 27 21 19 19 20 18 16 16 19 22 25 27 31 35 41 48 56 62 68 79 89 92 91 91 90 90 90 90 89 88 90 90 87 87 88 86 85 84 78 72 68 61 57 57 55 54 53 51 51 50 47 45 42 41 41 38 35 34 33 31 31
17 17 18 20 22 25 27 30 33 35 38 40 43 46 48 49 51 52 51 47 47 50 52 52 48 41 34 27 22 19 18 18 17 15 15 17 20 22 25 29 34 39 46 54 60 66 76 87 92 93 92 91 90 91 92 90 89 90 89 87 87 88 87 86 85 81 75 71 65 59 58 57 55 54 53 52 51 48 45 44 43 42 39 35 35 34 32 31
17 16 18 21 24 26 28 30 32 35 38 40 43 46 48 49 49 50 49 46 46 50 52 52 49 41 34 28 22 18 17 16 15 15 14 15 18 20 23 27 33 39 45 52 59 65 74 85 92 93 92 91 91 92 92 90 91 92 90 88 88 89 89 88 87 84 79 75 71 63 60 59 57 54 53 52 51 48 46 45 45 43 39 37 37 36 33 32
18 17 18 22 24 26 28 29 32 35 37 40 43 45 47 48 49 50 48 45 46 50 51 51 49 42 33 27 21 16 15 15 14 14 13 14 17 19 21 25 31 37 44 50 57 63 72 83 91 93 91 91 91 92 91 90 91 93 93 91 90 90 90 89 89 87 82 78 75 68 62 60 58 55 52 52 51 49 47 46 46 44 40 39 39 38 35 33
19 18 20 23 26 27 28 30 32 35 37 39 42 44 46 48 49 49 46 44 46 50 51 51 50 43 33 25 19 15 15 16 15 13 13 14 17 20 21 24 29 35 42 48 55 62 72 83 90 93 92 91 91 91 91 90 90 93 94 93 91 90 91 91 90 90 85 79 76 72 65 60 58 56 52 51 51 50 48 47 46 44 42 42 42 40 37 35
20 20 21 25 27 28 29 30 32 35 37 38 40 43 46 47 48 47 44 43 46 50 51 51 50 44 34 26 20 17 17 17 15 13 14 15 16 20 22 24 29 35 40 46 54 62 72 83 91 93 92 92 92 91 90 90 91 93 93 93 91 90 92 91 90 90 88 82 76 74 69 62 57 57 54 51 51 51 50 48 47 45 46 47 45 42 40 38
21 21 23 26 28 29 29 30 33 35 36 38 40 43 45 47 47 45 42 41 45 49 50 50 50 46 37 27 22 18 16 16 15 13 15 15 15 19 22 24 30 35 39 45 52 61 71 81 89 92 92 92 92 91 90 90 91 92 92 92 91 91 90 89 88 89 89 86 79 76 74 67 60 57 55 52 50 51 51 49 47 47 48 50 48 44 42 41
21 23 24 27 29 30 30 31 33 34 36 38 40 42 45 47 46 44 40 40 44 48 50 50 50 48 39 30 23 18 15 15 15 13 14 15 16 20 24 26 30 35 40 45 51 60 69 78 86 90 92 93 93 92 91 90 89 90 90 90 90 89 88 87 87 87 88 87 82 78 77 72 65 59 56 53 51 51 51 49 49 49 49 50 48 43 41 42
23 24 26 28 29 30 31 31 33 34 35 38 40 42 44 46 46 43 39 38 43 47 49 49 50 49 42 32 24 17 15 15 15 13 13 14 16 19 25 29 31 35 40 45 50 59 67 76 84 89 92 93 91 91 90 88 87 87 87 88 87 88 87 86 87 87 87 86 84 82 79 75 69 64 60 56 54 53 53 52 52 52 51 51 49 45 42 42
25 26 27 29 30 31 31 32 33 34 36 38 40 42 44 46 47 44 39 37 42 47 48 48 48 50 45 34 24 17 16 16 14 13 13 13 14 17 23 29 34 37 41 44 49 57 66 75 83 88 91 90 88 89 89 87 86 87 86 85 85 87 87 87 87 87 87 86 85 84 82 76 71 67 64 60 57 56 56 55 55 55 53 52 52 50 46 44
27 28 29 31 31 32 33 33 33 35 37 39 41 42 43 46 46 43 39 37 40 45 47 47 47 49 47 37 25 17 16 16 15 14 14 15 16 18 22 28 34 40 43 46 51 56 63 73 82 86 90 89 85 84 88 88 88 88 87 85 85 86 86 86 86 87 87 87 86 84 82 78 73 69 66 63 59 57 58 58 57 57 55 53 53 53 50 46
30 31 31 32 33 33 34 34 34 35 38 40 41 42 43 46 45 42 39 37 38 42 45 46 46 47 48 40 28 17 15 18 17 16 15 15 17 19 22 26 33 40 46 49 52 56 61 70 80 85 89 91 86 83 86 89 89 89 88 86 86 86 86 85 85 86 87 87 87 84 82 80 76 72 69 66 61 59 60 60 58 57 57 55 54 54 53 49
31 32 33 33 34 35 36 36 35 36 39 41 42 42 44 47 46 41 37 35 36 41 44 45 45 46 47 42 30 19 15 18 18 16 15 14 14 17 20 24 30 38 46 51 53 55 60 68 78 84 89 91 88 86 89 90 89 90 90 88 87 86 85 84 83 85 86 87 87 85 82 81 79 76 72 69 64 61 62 62 57 53 56 58 56 54 53 51
33 34 35 36 37 37 37 37 37 38 39 41 43 43 44 47 46 42 38 34 34 39 42 44 44 44 46 43 34 22 15 17 19 17 16 14 13 14 18 23 28 35 44 51 54 56 60 67 76 83 88 90 86 85 89 91 90 90 90 88 87 86 85 83 82 84 86 87 87 86 83 82 81 78 75 72 67 64 63 62 58 52 53 59 60 56 53 52
Wind_Direction
280 281 282 283 284 284 283 282 281 280 278 276 274 272 270 268 266 263 260 257 254 252 250 249 247 245 245 246 247 247 242 239 236 235 235 234 234 234 233 232 229 224 221 220 219 219 220 220 220 219 216 213 214 210 209 211 207 205 202 194 189 198 218 227 237 246 249 254 274 51 28 335 310 334 353 358 359 3 13 13 13 16 20 19 22 28 28 26
285 285 286 285 285 285 284 284 283 282 281 279 276 274 273 271 269 267 264 261 258 256 254 252 251 250 248 246 246 247 246 243 240 237 234 233 233 234 233 232 230 226 222 221 219 218 218 219 219 218 215 213 215 211 208 210 206 204 200 195 194 198 218 230 233 242 252 266 338 53 21 319 303 328 346 357 357 358 11 13 12 15 18 19 21 28 29 28
287 287 287 287 287 287 286 285 284 283 281 280 279 277 275 274 272 270 267 265 262 259 257 255 254 253 252 250 248 247 247 246 244 240 236 233 232 233 233 232 230 228 224 221 220 218 217 217 218 217 214 212 214 212 209 209 206 202 198 193 195 201 213 220 223 230 238 259 34 41 310 299 305 322 341 356 354 354 7 12 11 13 17 18 20 27 30 29
286 287 287 287 287 287 287 287 286 284 283 281 280 278 277 276 274 272 270 268 266 264 261 258 256 255 254 253 251 250 248 247 246 243 240 236 232 231 232 232 230 229 225 222 220 219 217 216 216 215 213 212 213 213 210 209 206 202 197 191 193 204 209 207 212 216 209 219 35 19 259 272 292 310 334 350 351 353 2 11 11 12 16 18 19 26 30 30
285 285 285 285 286 286 286 286 286 285 284 282 281 280 278 277 275 274 272 270 268 266 264 262 259 257 255 254 252 251 250 248 247 244 242 240 235 231 231 232 231 229 227 224 221 219 218 215 215 214 212 211 212 214 210 208 206 202 199 191 191 205 211 210 215 219 213 221 293 262 245 255 280 297 323 341 348 351 357 9 11 10 15 17 19 25 31 31
286 286 285 285 285 285 285 284 284 283 282 282 281 280 279 277 276 275 273 271 270 268 266 264 262 260 257 255 253 251 250 249 248 246 244 242 239 235 231 231 231 230 228 226 223 220 218 216 215 214 211 210 211 213 211 209 207 204 202 192 189 203 213 218 222 226 220 205 226 242 247 255 280 292 312 338 345 348 353 6 11 9 14 16 18 24 31 32
286 286 286 285 285 285 284 284 283 282 281 280 279 279 278 277 276 275 273 272 270 269 267 265 263 262 260 258 255 253 250 249 248 247 246 244 241 239 234 231 231 230 229 228 225 221 218 216 214 213 212 210 210 212 211 210 208 205 203 195 192 201 210 218 218 219 217 201 210 227 242 255 271 285 304 332 340 346 350 360 10 11 13 16 17 22 30 34
287 286 286 285 285 284 284 284 283 282 280 279 277 276 276 276 275 274 273 271 270 269 268 267 265 263 261 260 258 255 252 250 247 246 246 245 243 241 237 233 230 229 229 228 227 222 218 215 214 214 212 210 209 210 210 210 209 206 203 199 200 204 207 213 211 209 212 205 208 210 217 258 261 271 292 316 331 345 346 353 9 12 13 15 16 20 28 35
288 287 286 284 284 283 283 283 283 282 281 279 277 275 274 274 274 273 272 271 270 269 269 268 266 264 263 261 259 257 254 251 248 246 245 245 243 241 239 235 230 228 227 228 227 223 218 215 214 214 212 210 209 209 209 209 209 206 203 201 200 202 206 214 213 211 212 208 211 204 196 223 235 254 282 295 313 339 343 348 4 11 14 14 15 20 27 34
288 287 285 284 283 283 283 283 282 281 280 279 278 276 275 274 273 272 272 271 270 269 268 268 266 265 263 261 260 258 255 252 249 247 245 243 242 241 239 236 233 228 226 227 226 223 218 215 215 215 213 210 209 209 208 208 208 205 202 200 197 198 205 215 217 214 213 210 213 211 206 213 216 245 272 278 294 328 341 343 358 8 12 13 14 20 27 34
288 286 284 283 283 282 282 282 281 280 279 278 277 276 276 275 273 273 272 271 270 270 269 268 266 265 263 261 260 258 256 253 250 247 245 243 241 240 239 237 234 230 227 225 225 223 218 216 215 214 213 211 209 209 207 207 208 206 202 198 195 194 197 210 217 214 217 215 212 217 218 212 206 239 262 263 280 314 339 338 352 4 9 12 13 18 27 35
287 285 284 283 282 282 281 281 281 280 279 278 277 277 276 275 274 273 272 271 271 270 269 268 266 265 263 261 260 258 257 255 251 248 246 244 242 240 239 237 235 232 229 226 224 222 219 216 214 214 214 212 209 209 208 206 207 206 202 198 196 194 191 201 211 211 215 217 216 220 222 213 203 220 245 249 265 298 335 334 345 360 7 11 11 16 25 35
288 286 284 283 283 282 282 281 281 281 280 279 278 277 277 276 275 274 273 272 271 270 269 268 266 265 263 262 260 258 257 255 253 250 248 246 242 240 239 237 236 234 231 227 224 222 220 216 212 213 215 212 209 209 208 206 205 205 203 199 198 196 192 198 203 206 212 215 218 222 224 220 208 208 227 242 256 283 317 328 338 355 5 9 12 14 23 34
291 288 286 284 283 283 283 283 283 282 282 281 280 279 278 277 276 275 273 272 271 270 269 267 266 265 263 261 259 258 257 256 254 250 248 247 244 241 239 237 236 235 233 228 225 222 220 216 212 214 215 213 210 209 208 207 205 204 203 201 199 196 195 195 195 200 209 212 217 222 224 222 212 206 217 238 247 265 297 317 328 347 3 8 12 14 21 33
294 290 288 286 286 285 285 285 285 285 284 283 282 281 280 278 277 275 274 273 271 270 269 267 266 264 263 261 260 258 258 257 255 251 247 247 245 241 238 237 235 235 234 230 225 222 220 216 213 214 214 214 211 208 209 208 205 203 202 202 200 198 198 197 198 203 207 209 213 221 225 220 216 211 212 234 241 249 270 298 317 340 359 8 14 15 21 32
295 293 291 290 289 289 288 288 288 287 286 285 284 282 281 279 277 275 274 273 271 270 268 267 266 265 264 262 260 259 257 255 254 251 246 244 244 241 238 235 233 233 232 231 227 223 220 216 214 214 214 214 211 208 209 208 205 203 202 201 198 196 198 198 203 210 212 209 209 217 222 218 219 217 213 233 243 244 247 265 297 326 351 7 15 17 22 32
296 295 294 293 292 292 292 291 290 290 289 287 285 283 281 279 277 275 274 272 271 270 269 269 267 266 264 263 261 258 256 253 251 250 246 241 240 239 237 234 232 230 230 230 228 224 221 217 213 214 214 214 211 209 209 208 205 204 202 201 198 194 194 197 203 210 213 211 210 215 219 216 219 219 218 234 245 245 245 243 270 310 339 2 17 18 24 33
297 297 296 296 295 295 294 293 292 291 289 287 286 283 281 279 277 276 274 273 272 271 270 270 268 267 265 263 261 258 255 253 250 248 246 241 238 237 236 234 231 228 228 228 227 224 222 217 213 214 215 214 212 210 209 208 206 204 202 200 199 194 192 195 201 208 211 211 212 215 217 216 217 217 219 232 240 244 246 235 239 283 320 353 19 22 25 34
298 298 298 298 297 297 296 295 293 291 289 287 285 283 281 279 277 276 275 274 274 273 272 271 270 269 267 264 262 260 257 255 251 248 246 242 239 237 235 234 231 228 225 225 225 224 222 218 213 214 216 215 213 210 208 208 206 204 203 200 200 197 192 192 199 205 209 210 212 216 218 218 218 216 218 224 227 236 244 232 221 251 291 336 19 31 30 35
300 300 300 300 299 298 297 295 293 291 289 288 286 283 281 279 278 277 277 276 276 276 275 275 274 272 271 269 266 263 261 258 255 252 248 245 243 240 237 235 233 230 226 223 223 223 222 218 214 214 217 217 213 208 206 208 207 205 203 201 200 199 194 193 197 202 209 212 211 216 218 216 217 217 216 220 216 223 239 228 212 228 259 307 15 44 40 41
302 302 302 301 301 299 298 295 293 292 290 288 286 283 281 280 279 279 278 279 279 279 279 279 278 276 274 272 270 267 265 262 259 256 252 249 245 242 240 237 235 233 228 223 221 221 221 219 216 215 217 217 213 207 206 208 207 205 203 201 200 200 198 196 198 199 206 213 212 215 216 214 216 216 215 218 216 214 226 221 210 218 233 257 350 60 54 49
303 303 303 302 301 300 297 295 294 293 291 288 285 283 281 281 281 281 281 281 282 281 281 281 280 278 277 275 272 270 268 265 263 259 256 251 247 244 241 238 235 233 230 225 221 220 219 218 217 216 216 217 212 207 206 208 207 205 203 201 200 200 199 199 201 200 203 211 214 215 213 211 213 214 213 215 215 212 213 215 212 213 223 233 235 81 69 59
304 304 303 302 301 299 297 296 296 293 289 286 284 284 284 284 285 285 285 285 285 284 284 283 282 281 280 278 276 274 271 268 265 262 257 253 249 245 241 238 235 232 230 227 222 219 217 216 216 215 214 216 212 207 206 208 208 206 204 201 200 200 199 201 202 200 201 207 213 216 214 211 211 213 213 212 214 213 206 208 212 209 215 224 212 116 85 72
305 304 303 302 301 299 298 297 295 290 286 284 284 285 286 288 288 289 290 290 289 289 288 286 285 284 283 281 279 276 273 270 266 262 257 253 248 244 240 237 234 231 228 226 223 220 217 216 216 215 213 214 212 207 206 208 208 206 204 201 200 199 200 202 201 198 200 203 207 215 218 214 211 212 213 210 212 215 208 203 211 211 208 211 205 158 111 92
305 303 302 302 301 299 298 296 292 287 284 284 285 287 289 290 292 294 295 294 293 292 291 289 289 288 286 284 282 278 275 271 266 261 256 252 247 243 239 235 232 230 227 225 223 221 217 215 216 215 214 214 212 207 206 207 207 206 204 201 200 199 200 201 200 196 197 199 202 210 216 215 211 210 211 210 210 215 212 202 208 215 208 202 196 172 140 118
304 303 302 302 301 298 297 293 288 284 284 286 288 290 292 294 296 298 298 298 297 296 296 295 294 292 290 288 285 281 277 272 266 261 255 250 245 240 236 233 229 227 225 222 222 221 218 214 214 214 214 212 211 208 207 206 206 205 204 201 200 200 200 201 199 195 195 198 201 208 215 213 209 209 210 211 208 211 211 202 204 214 206 199 194 173 158 140
303 303 303 302 299 297 294 289 284 284 286 288 291 293 295 297 300 302 304 304 304 303 303 302 300 298 295 291 288 283 278 272 266 261 254 249 243 238 234 230 227 224 222 220 219 219 217 214 212 212 213 211 210 210 208 206 205 205 204 201 200 200 200 201 199 194 193 196 199 205 213 214 209 207 207 209 206 207 210 203 203 211 204 197 194 179 169 156
302 302 302 300 297 295 290 284 283 285 288 291 293 295 298 303 306 309 311 311 311 309 308 307 305 303 300 296 291 286 279 272 265 259 253 247 242 237 231 228 225 222 220 217 216 216 215 214 211 210 211 210 210 210 207 205 204 204 203 201 199 199 199 200 199 195 192 194 199 205 211 214 212 206 203 205 204 205 211 206 202 208 202 195 193 185 177 165
301 302 300 297 295 292 286 282 285 288 293 295 297 301 305 309 312 314 315 316 315 313 311 310 308 305 303 299 293 287 279 272 265 259 253 247 241 236 231 226 223 220 218 216 214 214 214 213 210 208 209 209 210 210 206 204 203 204 203 200 199 198 198 198 199 198 196 195 201 206 210 214 214 207 203 203 204 205 209 206 203 206 202 194 190 187 183 172
301 301 298 295 291 287 283 285 289 294 297 300 303 307 310 313 315 317 318 319 318 316 315 313 311 309 306 302 294 288 280 272 265 259 252 246 241 236 230 225 221 218 216 214 213 212 212 211 208 206 206 207 209 209 205 203 202 203 203 200 198 197 197 198 197 198 197 194 200 205 206 211 212 208 203 201 202 203 203 202 203 206 202 194 189 187 185 179
301 299 295 291 287 283 284 289 294 298 301 304 308 312 315 317 319 320 321 321 321 320 318 316 315 314 311 305 296 289 281 273 264 256 250 245 240 235 230 225 220 217 214 212 211 210 210 209 207 205 204 205 207 207 205 203 201 202 202 200 197 196 198 199 198 197 193 192 198 203 202 207 209 207 203 201 202 202 201 201 204 206 201 193 189 186 186 185
300 296 291 287 283 282 288 294 299 302 306 309 312 316 318 320 321 322 324 324 324 324 322 320 319 319 315 307 298 291 281 272 263 254 248 243 239 235 231 226 220 216 213 210 209 209 208 208 207 205 203 204 205 205 205 203 200 201 202 200 197 197 200 201 199 196 191 190 197 200 199 203 207 207 206 207 207 204 201 201 203 205 200 193 189 187 187 189
297 292 288 284 281 285 293 299 303 306 310 313 316 319 321 322 324 325 327 328 328 327 324 323 323 323 319 310 300 291 281 270 262 255 249 243 238 234 230 226 221 216 212 209 207 207 207 207 206 205 203 203 203 204 204 203 201 201 202 200 197 198 200 201 199 195 190 190 195 197 197 200 205 207 208 210 211 209 204 200 200 202 197 192 190 188 189 191
294 289 285 281 282 289 298 303 306 309 313 316 318 321 323 324 326 328 330 331 330 329 327 327 328 326 321 313 304 293 279 268 260 255 250 244 239 233 228 224 220 217 213 209 206 205 205 205 205 203 202 202 202 202 203 203 201 202 202 200 197 199 201 200 198 195 190 190 194 196 196 198 203 206 207 208 211 212 210 203 199 199 196 192 190 189 190 191
291 286 282 280 286 294 301 305 308 312 315 318 320 322 325 327 329 331 332 332 332 330 329 330 332 330 323 315 307 296 280 267 260 255 250 245 239 233 226 222 218 216 213 210 206 204 203 204 204 202 200 200 200 201 202 202 201 201 202 201 198 198 200 200 198 195 191 190 194 197 197 199 202 206 207 207 208 211 211 205 199 199 200 197 193 193 194 193
290 284 281 283 291 299 303 306 310 314 318 320 322 324 327 329 331 333 334 334 333 332 333 334 336 333 326 318 309 296 281 270 260 253 247 242 237 232 226 220 216 214 211 209 207 204 202 203 203 201 200 199 200 200 201 201 201 201 202 202 199 198 200 200 197 196 193 191 195 197 196 199 201 205 207 205 205 207 208 206 201 200 202 201 198 196 197 199
287 283 282 288 296 301 304 308 313 316 319 322 324 326 329 331 333 334 335 335 334 334 336 338 339 336 329 321 310 292 279 272 264 254 246 240 236 232 226 219 216 213 209 206 206 204 202 201 201 200 199 199 200 200 200 200 199 200 201 202 200 198 199 199 197 197 195 191 194 196 196 198 201 204 206 204 204 205 206 207 205 203 202 203 203 198 196 203
285 282 284 292 299 302 306 311 315 318 321 324 326 328 331 333 334 335 336 336 335 337 340 342 342 338 332 323 308 287 276 272 267 258 250 242 236 231 225 219 216 213 208 205 204 204 202 200 200 200 199 198 199 200 201 201 199 199 201 201 200 198 199 198 197 197 195 190 191 194 195 198 201 204 205 203 203 204 205 206 207 205 203 205 208 202 196 203
284 283 287 294 299 303 308 313 317 321 323 325 327 329 333 335 335 336 337 337 338 341 344 344 344 340 334 324 306 286 275 273 270 260 248 239 234 230 222 217 213 210 206 204 203 203 202 199 198 198 198 198 198 200 201 200 200 200 200 200 200 199 199 199 197 197 195 189 188 192 195 198 200 203 205 203 203 204 205 206 207 206 205 206 208 204 197 202
284 285 290 295 299 303 310 316 319 322 324 326 328 331 334 336 337 337 337 337 342 346 346 346 346 343 335 324 309 292 278 275 273 263 247 234 230 228 221 214 209 206 203 202 201 202 201 199 197 197 198 197 198 201 201 199 199 200 199 200 201 200 199 199 198 197 196 191 187 189 194 197 199 202 205 205 203 204 205 207 208 206 206 206 206 203 199 202
285 287 293 297 300 307 314 318 321 323 325 327 329 332 335 337 337 338 337 339 346 349 348 348 348 345 337 326 315 298 281 277 275 267 253 233 226 225 218 211 207 203 201 200 200 200 200 198 196 196 197 197 198 201 202 200 199 199 199 200 201 201 200 199 198 198 197 194 190 188 192 196 198 200 204 205 204 204 205 207 207 206 207 207 204 204 203 203
285 289 293 296 301 308 314 319 321 324 326 328 330 332 336 337 338 339 339 342 349 351 349 349 349 347 339 329 317 297 279 276 273 267 256 235 222 218 213 209 205 201 199 199 199 199 198 197 196 196 196 197 198 201 202 201 200 199 199 200 200 201 200 199 199 198 197 196 192 189 190 194 196 198 201 204 205 204 205 207 207 207 208 207 204 204 204 203
287 291 293 296 302 309 315 320 322 324 327 329 331 333 336 337 338 340 341 345 351 351 350 350 351 349 341 328 313 288 271 269 268 264 256 238 221 213 208 205 203 200 198 198 198 198 197 196 195 195 196 197 199 201 202 202 201 201 200 200 200 200 201 200 199 198 198 197 194 191 190 192 195 197 199 203 205 204 205 207 208 209 209 207 205 205 205 203
288 292 296 299 305 312 317 321 324 326 328 330 331 332 334 336 339 340 342 347 352 351 350 351 352 350 343 330 311 288 270 267 268 263 255 243 223 209 204 201 200 198 198 198 197 198 198 196 195 194 195 197 198 201 202 202 203 202 201 200 200 201 201 200 199 199 200 200 197 195 194 193 195 197 199 203 205 204 205 208 210 211 209 206 206 206 206 205
288 293 298 302 307 313 318 322 324 326 328 329 330 331 333 336 339 340 342 347 352 352 351 352 354 352 345 333 317 297 278 270 271 267 259 250 227 206 198 199 199 197 197 198 197 198 198 197 195 195 196 197 199 201 202 203 203 202 201 201 201 202 202 201 200 201 202 203 202 200 199 197 196 198 199 203 206 206 207 209 211 211 209 207 207 208 209 208
288 295 300 304 309 315 319 322 324 327 328 328 329 330 332 334 337 339 341 347 351 351 351 352 354 354 349 338 325 305 278 267 270 269 262 255 236 211 197 195 198 197 197 198 197 197 198 197 196 195 197 198 199 200 202 204 204 202 201 202 203 203 203 202 202 202 203 205 205 204 204 203 200 200 200 203 206 207 209 211 212 211 210 209 209 211 213 213
291 297 301 305 310 314 317 320 324 326 326 326 327 329 331 333 336 337 338 346 351 350 350 352 353 354 351 343 331 308 272 259 264 266 261 256 245 226 206 196 195 196 197 198 198 198 198 197 196 196 198 199 200 201 202 204 205 203 202 203 203 204 203 202 203 203 203 205 206 206 207 206 203 202 202 203 205 207 210 213 213 211 209 210 210 210 213 215
294 298 301 305 309 312 315 318 323 324 323 324 325 327 330 331 334 336 336 345 351 348 348 351 353 355 353 348 337 311 274 257 258 260 257 249 241 233 219 205 197 194 196 198 199 198 198 198 197 197 199 199 200 202 203 203 204 204 203 204 204 204 204 203 203 203 203 204 206 206 208 207 205 204 204 204 205 207 209 213 215 213 210 210 210 208 209 211
296 300 302 304 307 310 313 317 322 322 320 322 323 325 328 330 333 335 334 342 350 347 345 349 352 355 354 350 343 316 276 254 247 247 246 240 229 223 221 213 203 196 195 198 200 199 198 199 198 198 199 199 199 202 204 204 205 204 202 203 204 205 205 204 203 203 203 204 206 207 208 208 206 205 204 204 205 207 209 212 215 215 212 210 210 209 209 210
296 299 301 303 306 309 311 315 320 320 318 319 321 323 326 327 331 334 332 339 347 345 344 347 351 354 355 352 346 324 279 256 248 246 246 246 236 225 220 218 210 202 198 199 201 200 199 199 199 199 200 199 198 200 203 205 206 205 202 203 204 205 205 204 204 204 204 205 206 207 208 208 207 206 205 204 205 206 208 211 213 216 215 211 209 210 211 212
295 298 299 302 304 307 310 314 318 318 316 316 318 320 323 325 329 331 330 335 344 343 342 346 349 353 355 353 348 332 291 262 251 247 246 247 242 232 226 223 218 211 204 201 201 201 200 200 200 200 200 200 200 201 203 205 207 206 203 202 204 205 205 204 204 204 204 205 206 207 207 208 207 206 205 204 204 205 207 209 210 214 218 214 209 209 212 213
294 297 298 300 303 305 308 312 315 314 313 313 314 317 320 322 326 329 328 332 341 342 341 344 348 351 354 354 349 339 308 269 249 244 244 243 239 232 227 224 221 218 212 205 201 201 201 202 201 201 200 200 200 202 204 205 206 206 204 203 204 205 206 205 204 204 205 206 207 207 207 208 207 206 205 204 203 203 204 207 206 209 216 217 213 211 212 213
Height
10938 10938 10937 10936 10936 10935 10935 10935 10934 10934 10934 10933 10933 10932 10932 10932 10931 10931 10931 10931 10930 10930 10929 10929 10929 10929 10929 10930 10930 10931 10932 10933 10934 10935 10937 10939 10940 10942 10944 10946 10949 10951 10954 10956 10958 10960 10962 10964 10966 10969 10972 10975 10977 10979 10980 10982 10984 10986 10989 10990 10991 10992 10992 10992 10992 10992 10992 10992 10993 10992 10992 10994 10993 10992 10991 10991 10990 10988 10985 10982 10980 10977 10975 10972 10969 10967 10964 10962
10936 10935 10935 10934 10934 10933 10933 10932 10932 10932 10931 10931 10930 10930 10930 10929 10929 10929 10929 10928 10928 10928 10927 10927 10927 10927 10927 10928 10928 10928 10929 10930 10931 10932 10934 10936 10937 10938 10940 10943 10945 10948 10950 10953 10955 10957 10959 10961 10964 10966 10970 10973 10975 10977 10978 10980 10983 10985 10988 10989 10990 10991 10992 10992 10991 10991 10992 10992 10992 10992 10993 10995 10994 10992 10992 10991 10990 10989 10986 10983 10981 10978 10976 10973 10971 10968 10965 10963
10934 10933 10933 10932 10931 10931 10930 10930 10930 10929 10929 10928 10928 10927 10927 10927 10926 10926 10926 10926 10925 10925 10925 10925 10925 10925 10925 10925 10925 10926 10927 10928 10928 10929 10931 10932 10934 10935 10937 10939 10941 10943 10947 10949 10951 10954 10956 10958 10961 10964 10967 10971 10972 10974 10976 10978 10982 10984 10986 10988 10989 10990 10991 10991 10990 10990 10992 10992 10992 10992 10994 10996 10994 10993 10993 10992 10991 10990 10988 10985 10983 10980 10977 10974 10972 10969 10967 10964
10932 10931 10931 10930 10929 10928 10928 10927 10926 10926 10926 10926 10925 10925 10924 10924 10923 10923 10923 10923 10922 10922 10922 10922 10922 10923 10923 10923 10923 10924 10924 10925 10925 10926 10927 10929 10930 10932 10933 10936 10938 10940 10943 10946 10948 10950 10953 10955 10958 10961 10965 10967 10970 10972 10974 10977 10981 10983 10985 10987 10989 10989 10990 10990 10988 10988 10990 10991 10992 10993 10995 10996 10995 10994 10993 10992 10991 10990 10989 10987 10984 10981 10978 10975 10973 10970 10968 10965
10930 10929 10928 10928 10927 10926 10925 10924 10924 10923 10922 10922 10922 10922 10921 10921 10920 10920 10920 10919 10919 10919 10919 10919 10919 10920 10920 10920 10920 10921 10922 10922 10922 10923 10924 10925 10927 10929 10930 10932 10934 10937 10939 10942 10944 10947 10950 10952 10955 10958 10961 10964 10966 10969 10972 10976 10978 10981 10984 10986 10987 10988 10989 10989 10987 10987 10989 10990 10992 10993 10994 10996 10995 10995 10994 10993 10992 10991 10990 10988 10985 10982 10979 10977 10974 10972 10969 10967
10927 10926 10926 10925 10924 10924 10923 10922 10921 10920 10919 10919 10918 10918 10918 10917 10917 10916 10916 10916 10915 10915 10915 10915 10916 10917 10917 10917 10918 10918 10919 10918 10919 10920 10921 10922 10924 10925 10927 10929 10931 10933 10936 10938 10940 10943 10946 10950 10953 10955 10958 10960 10963 10966 10970 10973 10976 10979 10982 10984 10986 10986 10988 10988 10987 10987 10988 10990 10992 10993 10993 10995 10996 10995 10994 10993 10992 10991 10990 10988 10986 10984 10980 10978 10975 10973 10971 10968
10925 10924 10923 10922 10921 10921 10920 10919 10918 10917 10916 10915 10915 10914 10914 10913 10913 10912 10912 10911 10911 10911 10911 10911 10912 10913 10914 10914 10915 10915 10915 10915 10916 10917 10917 10918 10920 10922 10924 10926 10927 10929 10932 10934 10936 10940 10943 10947 10950 10952 10954 10957 10960 10964 10968 10971 10974 10977 10980 10982 10984 10985 10986 10987 10987 10988 10988 10989 10990 10992 10993 10994 10995 10995 10994 10994 10993 10992 10990 10989 10988 10985 10982 10979 10976 10974 10973 10970
10922 10921 10920 10919 10918 10917 10916 10915 10914 10913 10912 10912 10911 10910 10910 10909 10909 10908 10908 10907 10907 10907 10907 10907 10908 10909 10910 10910 10911 10911 10911 10911 10912 10913 10914 10915 10917 10918 10920 10922 10923 10926 10928 10930 10932 10935 10940 10944 10947 10949 10951 10954 10957 10961 10965 10969 10972 10976 10978 10980 10982 10983 10985 10986 10986 10987 10987 10987 10989 10990 10992 10994 10994 10995 10995 10994 10993 10992 10991 10990 10989 10987 10984 10981 10978 10976 10974 10972
10919 10917 10916 10915 10914 10913 10912 10911 10910 10909 10908 10907 10907 10906 10905 10905 10904 10904 10903 10903 10902 10902 10903 10903 10903 10904 10905 10906 10906 10906 10906 10907 10908 10910 10911 10912 10913 10914 10916 10917 10919 10921 10923 10925 10927 10931 10936 10941 10944 10945 10948 10951 10954 10958 10961 10965 10969 10973 10976 10978 10982 10983 10984 10985 10985 10986 10986 10987 10988 10989 10990 10992 10993 10994 10995 10994 10994 10993 10991 10990 10989 10987 10985 10983 10980 10978 10976 10973
10915 10914 10913 10912 10911 10909 10908 10907 10906 10905 10904 10903 10902 10901 10901 10900 10900 10899 10898 10898 10898 10898 10898 10898 10899 10899 10900 10901 10901 10901 10900 10902 10905 10906 10907 10907 10908 10910 10911 10913 10914 10916 10918 10919 10922 10927 10932 10937 10939 10942 10945 10948 10951 10954 10958 10961 10965 10969 10973 10976 10981 10982 10982 10983 10984 10985 10986 10987 10988 10988 10988 10990 10992 10994 10994 10994 10994 10993 10992 10991 10989 10988 10986 10984 10982 10980 10978 10975
10912 10910 10909 10908 10907 10905 10904 10903 10902 10901 10900 10899 10897 10897 10896 10895 10895 10894 10893 10893 10893 10893 10893 10893 10893 10894 10895 10895 10895 10894 10894 10897 10899 10901 10902 10903 10904 10905 10906 10908 10909 10911 10913 10914 10918 10923 10928 10932 10935 10939 10941 10944 10947 10950 10954 10958 10962 10966 10970 10974 10977 10979 10980 10982 10983 10984 10986 10987 10987 10987 10987 10989 10991 10993 10994 10993 10994 10993 10992 10991 10990 10988 10986 10985 10983 10981 10980 10977
10908 10907 10905 10904 10903 10901 10900 10899 10898 10897 10895 10894 10893 10892 10891 10890 10890 10889 10888 10887 10887 10887 10887 10887 10887 10888 10889 10889 10889 10888 10889 10891 10893 10895 10897 10898 10900 10900 10901 10903 10905 10906 10908 10910 10914 10919 10924 10927 10932 10935 10936 10939 10943 10946 10950 10955 10959 10963 10967 10971 10973 10975 10977 10980 10981 10983 10985 10985 10985 10985 10987 10989 10990 10991 10993 10993 10993 10993 10993 10992 10991 10989 10987 10985 10984 10982 10981 10979
10904 10903 10901 10900 10899 10897 10896 10895 10893 10892 10890 10889 10888 10887 10886 10885 10884 10883 10882 10882 10882 10881 10881 10881 10881 10882 10882 10883 10882 10882 10883 10885 10887 10890 10892 10893 10895 10896 10897 10898 10900 10901 10903 10906 10910 10915 10919 10923 10928 10930 10931 10935 10939 10943 10947 10951 10955 10959 10964 10968 10970 10972 10976 10978 10980 10981 10982 10982 10983 10985 10986 10988 10989 10990 10991 10992 10993 10993 10993 10993 10992 10991 10989 10987 10985 10983 10982 10981
10899 10898 10897 10896 10894 10893 10891 10890 10889 10887 10885 10884 10883 10882 10880 10879 10878 10877 10876 10876 10876 10875 10874 10874 10875 10875 10875 10876 10875 10876 10877 10878 10881 10885 10887 10887 10888 10891 10892 10893 10894 10896 10899 10902 10906 10910 10914 10919 10924 10925 10927 10931 10935 10940 10944 10948 10952 10956 10961 10964 10967 10970 10973 10976 10977 10979 10979 10980 10982 10983 10984 10987 10989 10990 10990 10992 10992 10993 10993 10993 10993 10992 10990 10988 10986 10985 10983 10982
10895 10894 10892 10891 10889 10888 10887 10885 10883 10882 10880 10879 10877 10876 10874 10873 10872 10871 10870 10869 10869 10868 10868 10868 10868 10868 10868 10868 10869 10870 10871 10872 10874 10878 10881 10880 10881 10884 10886 10887 10889 10891 10894 10898 10902 10906 10910 10915 10919 10920 10923 10926 10931 10936 10940 10944 10948 10952 10956 10960 10965 10968 10970 10973 10974 10975 10977 10980 10982 10982 10983 10986 10989 10989 10990 10991 10992 10992 10993 10993 10993 10993 10991 10989 10987 10986 10985 10983
10890 10889 10888 10886 10884 10883 10881 10880 10878 10876 10874 10873 10871 10870 10868 10867 10865 10864 10863 10863 10862 10862 10861 10861 10861 10861 10861 10861 10863 10864 10865 10866 10866 10869 10873 10874 10873 10876 10879 10881 10883 10885 10888 10892 10897 10902 10906 10909 10913 10916 10918 10920 10925 10931 10935 10939 10944 10948 10952 10956 10962 10965 10967 10970 10972 10973 10975 10979 10982 10981 10983 10986 10988 10989 10989 10990 10991 10991 10992 10993 10993 10993 10992 10990 10988 10987 10986 10985
10885 10884 10882 10881 10879 10878 10876 10874 10872 10870 10868 10866 10865 10863 10862 10860 10859 10858 10857 10856 10856 10855 10854 10854 10854 10854 10854 10855 10856 10857 10858 10859 10860 10861 10865 10867 10867 10868 10871 10874 10877 10879 10882 10887 10893 10897 10900 10903 10908 10911 10912 10915 10920 10926 10929 10934 10939 10943 10947 10952 10958 10961 10964 10968 10970 10972 10974 10977 10980 10980 10982 10985 10986 10988 10989 10990 10991 10991 10992 10992 10993 10993 10992 10991 10989 10987 10986 10986
10881 10879 10877 10876 10874 10872 10870 10868 10866 10864 10862 10860 10858 10856 10855 10854 10852 10852 10851 10850 10850 10849 10849 10848 10848 10847 10848 10849 10849 10851 10851 10852 10854 10855 10856 10859 10860 10861 10864 10867 10870 10873 10877 10881 10886 10890 10894 10898 10903 10906 10908 10911 10914 10918 10923 10929 10934 10939 10944 10949 10954 10958 10962 10966 10968 10970 10972 10975 10977 10979 10981 10984 10985 10987 10989 10990 10990 10990 10991 10992 10993 10993 10992 10992 10990 10988 10987 10986
10876 10873 10872 10870 10868 10866 10864 10862 10860 10858 10855 10854 10852 10850 10849 10848 10847 10846 10845 10845 10844 10844 10843 10842 10842 10841 10841 10842 10843 10844 10844 10845 10846 10847 10849 10851 10853 10854 10856 10859 10863 10867 10871 10874 10878 10883 10888 10893 10899 10902 10902 10903 10905 10910 10918 10924 10930 10935 10940 10945 10950 10954 10959 10963 10966 10968 10970 10972 10976 10978 10981 10983 10985 10987 10988 10989 10990 10990 10991 10992 10992 10992 10992 10992 10992 10990 10988 10987
10870 10868 10866 10864 10862 10860 10858 10855 10853 10851 10849 10848 10846 10844 10843 10842 10841 10841 10840 10840 10840 10838 10837 10836 10836 10835 10835 10835 10836 10836 10836 10837 10838 10840 10842 10843 10845 10847 10848 10852 10856 10859 10863 10867 10872 10877 10882 10888 10894 10895 10894 10893 10897 10906 10914 10920 10926 10931 10936 10941 10946 10951 10956 10960 10964 10966 10968 10970 10974 10977 10979 10982 10984 10986 10987 10988 10989 10989 10990 10991 10992 10992 10992 10992 10992 10991 10989 10988
10864 10862 10860 10858 10856 10854 10852 10850 10848 10846 10844 10842 10840 10839 10838 10837 10836 10836 10836 10835 10835 10833 10832 10830 10829 10829 10828 10828 10828 10828 10828 10829 10829 10831 10833 10834 10836 10838 10840 10843 10847 10850 10854 10859 10866 10871 10876 10882 10885 10886 10886 10887 10892 10903 10911 10915 10921 10927 10933 10938 10943 10948 10952 10956 10960 10963 10966 10968 10972 10975 10977 10980 10982 10984 10986 10987 10988 10989 10989 10991 10991 10991 10992 10992 10992 10991 10990 10988
10859 10856 10854 10852 10850 10848 10846 10844 10842 10840 10838 10837 10835 10834 10833 10832 10832 10832 10831 10831 10830 10829 10827 10825 10823 10821 10820 10819 10819 10819 10818 10819 10820 10820 10822 10823 10825 10827 10830 10833 10836 10840 10845 10853 10859 10863 10868 10872 10874 10876 10880 10881 10889 10900 10906 10911 10917 10923 10929 10934 10938 10943 10948 10952 10955 10959 10963 10965 10969 10972 10974 10977 10979 10981 10984 10986 10988 10988 10988 10990 10990 10991 10991 10991 10992 10991 10990 10989
10853 10851 10849 10847 10845 10843 10841 10839 10837 10835 10833 10832 10831 10830 10829 10828 10827 10827 10826 10826 10824 10823 10821 10819 10816 10814 10811 10810 10809 10808 10807 10807 10808 10808 10808 10810 10812 10815 10818 10821 10826 10831 10837 10844 10849 10853 10857 10858 10862 10869 10874 10878 10886 10895 10901 10907 10913 10918 10924 10929 10934 10939 10944 10948 10951 10957 10961 10963 10967 10970 10971 10974 10976 10979 10982 10985 10986 10987 10987 10989 10990 10990 10991 10991 10991 10991 10991 10990
10848 10846 10844 10842 10840 10838 10836 10834 10833 10831 10829 10828 10828 10826 10825 10824 10822 10821 10821 10820 10818 10816 10813 10811 10808 10805 10802 10800 10798 10796 10795 10795 10795 10794 10795 10796 10799 10802 10806 10810 10815 10820 10827 10832 10837 10841 10844 10848 10857 10865 10871 10874 10880 10889 10896 10900 10906 10912 10919 10925 10930 10935 10940 10944 10949 10955 10959 10961 10964 10967 10969 10971 10975 10978 10980 10983 10985 10986 10986 10988 10989 10990 10990 10991 10991 10991 10991 10991
10843 10841 10839 10837 10835 10833 10831 10830 10828 10827 10826 10825 10824 10823 10821 10820 10818 10816 10815 10813 10811 10809 10805 10802 10800 10796 10792 10788 10785 10784 10782 10782 10781 10780 10781 10783 10786 10789 10793 10797 10802 10808 10815 10821 10826 10830 10835 10844 10854 10860 10865 10869 10875 10884 10890 10893 10899 10907 10914 10921 10926 10932 10936 10941 10947 10953 10956 10959 10962 10964 10965 10968 10972 10975 10977 10981 10983 10984 10985 10986 10988 10989 10989 10990 10991 10991 10991 10991
10838 10836 10834 10832 10830 10829 10827 10826 10824 10823 10823 10822 10821 10819 10817 10815 10813 10811 10809 10806 10804 10801 10797 10793 10789 10786 10781 10777 10773 10771 10770 10769 10767 10768 10770 10771 10773 10776 10780 10784 10790 10796 10802 10809 10815 10821 10829 10838 10845 10851 10858 10863 10871 10878 10883 10888 10896 10903 10910 10917 10923 10928 10933 10939 10945 10949 10953 10956 10959 10961 10962 10965 10970 10973 10975 10978 10981 10982 10983 10985 10986 10987 10989 10990 10990 10991 10991 10992
10833 10831 10830 10828 10826 10825 10823 10822 10821 10820 10819 10818 10817 10816 10814 10811 10809 10806 10803 10799 10795 10791 10788 10783 10778 10774 10769 10765 10762 10760 10758 10757 10755 10756 10758 10759 10761 10764 10768 10773 10778 10784 10790 10797 10803 10810 10819 10827 10835 10843 10851 10859 10867 10871 10876 10883 10891 10899 10906 10913 10919 10925 10930 10936 10941 10946 10950 10953 10956 10958 10959 10963 10967 10969 10972 10975 10978 10980 10982 10983 10985 10986 10988 10989 10990 10990 10991 10992
10829 10827 10826 10824 10822 10821 10820 10819 10818 10817 10816 10815 10813 10812 10810 10807 10804 10799 10795 10791 10786 10781 10778 10773 10767 10762 10758 10753 10750 10748 10746 10744 10743 10744 10746 10747 10750 10753 10757 10762 10767 10772 10778 10783 10790 10798 10808 10817 10826 10835 10843 10854 10860 10861 10867 10876 10885 10894 10902 10909 10916 10922 10927 10933 10938 10943 10946 10949 10952 10954 10957 10960 10963 10966 10969 10973 10976 10978 10980 10982 10983 10985 10987 10988 10989 10990 10991 10991
10825 10823 10822 10820 10818 10817 10817 10816 10815 10814 10813 10811 10809 10807 10805 10802 10799 10794 10790 10785 10778 10772 10768 10765 10759 10753 10748 10743 10738 10736 10735 10733 10732 10733 10735 10736 10739 10742 10747 10751 10756 10760 10765 10771 10781 10790 10798 10806 10817 10828 10839 10847 10848 10851 10860 10870 10880 10888 10896 10905 10912 10918 10925 10930 10934 10938 10940 10943 10948 10951 10954 10957 10960 10964 10968 10971 10974 10977 10978 10981 10982 10984 10986 10987 10988 10989 10990 10991
10821 10819 10818 10816 10815 10814 10814 10813 10812 10811 10809 10807 10805 10802 10800 10797 10793 10789 10785 10779 10772 10764 10758 10755 10751 10744 10739 10733 10729 10726 10724 10723 10723 10724 10724 10726 10729 10732 10735 10739 10744 10748 10754 10763 10772 10778 10786 10796 10809 10820 10830 10835 10838 10846 10856 10864 10873 10883 10891 10900 10908 10915 10918 10919 10923 10927 10931 10937 10942 10946 10950 10953 10957 10961 10965 10968 10970 10972 10975 10978 10981 10982 10984 10986 10987 10988 10989 10991
10817 10816 10814 10813 10812 10811 10811 10810 10809 10807 10805 10803 10800 10798 10794 10791 10787 10783 10778 10773 10766 10758 10750 10744 10741 10736 10730 10724 10720 10717 10716 10715 10715 10715 10716 10717 10719 10722 10724 10728 10732 10737 10745 10753 10759 10767 10778 10790 10800 10808 10815 10821 10830 10842 10851 10860 10870 10879 10887 10895 10903 10908 10908 10908 10913 10918 10924 10932 10937 10941 10946 10949 10953 10958 10962 10964 10965 10968 10973 10976 10978 10980 10982 10984 10986 10987 10989 10990
10814 10812 10811 10810 10809 10809 10808 10807 10805 10803 10801 10799 10796 10793 10789 10786 10781 10776 10771 10766 10759 10752 10744 10737 10731 10727 10723 10717 10712 10710 10708 10707 10707 10707 10708 10710 10711 10713 10716 10720 10724 10729 10735 10742 10751 10761 10771 10781 10789 10796 10805 10816 10827 10838 10847 10857 10867 10875 10882 10890 10896 10899 10899 10904 10911 10917 10924 10930 10933 10938 10942 10945 10950 10954 10958 10960 10963 10967 10970 10973 10976 10979 10981 10983 10985 10986 10988 10989
10811 10810 10809 10808 10807 10807 10806 10804 10802 10800 10797 10795 10791 10788 10784 10780 10776 10771 10765 10759 10752 10745 10739 10732 10724 10718 10714 10710 10706 10703 10702 10701 10701 10701 10702 10703 10704 10706 10709 10714 10718 10721 10726 10734 10744 10754 10762 10771 10780 10791 10804 10815 10824 10834 10844 10853 10862 10869 10874 10881 10888 10891 10894 10901 10909 10917 10923 10927 10930 10935 10938 10942 10946 10950 10955 10957 10961 10965 10968 10971 10974 10977 10980 10982 10983 10985 10986 10988
10808 10807 10806 10805 10805 10804 10803 10801 10799 10796 10794 10791 10787 10783 10779 10775 10769 10764 10758 10752 10745 10739 10732 10726 10719 10712 10707 10703 10700 10698 10697 10696 10696 10696 10696 10697 10698 10700 10703 10707 10711 10715 10721 10728 10736 10744 10753 10763 10774 10787 10800 10810 10819 10827 10834 10842 10851 10858 10864 10872 10879 10885 10890 10898 10907 10914 10920 10923 10926 10931 10935 10939 10942 10946 10950 10954 10959 10963 10967 10970 10973 10976 10978 10980 10982 10983 10984 10987
10806 10805 10804 10803 10802 10802 10800 10798 10796 10793 10791 10787 10784 10779 10775 10770 10764 10758 10753 10746 10740 10733 10727 10720 10714 10708 10701 10697 10695 10693 10693 10693 10693 10692 10692 10692 10692 10695 10697 10700 10705 10712 10717 10722 10728 10736 10746 10756 10768 10781 10791 10800 10809 10816 10823 10833 10843 10852 10860 10868 10874 10880 10887 10895 10903 10911 10917 10920 10923 10927 10931 10935 10938 10942 10947 10952 10957 10960 10964 10968 10971 10974 10977 10979 10980 10982 10983 10985
10804 10803 10801 10801 10800 10799 10797 10795 10793 10790 10787 10784 10780 10775 10771 10765 10759 10754 10748 10741 10734 10729 10722 10715 10709 10703 10698 10693 10691 10689 10688 10689 10689 10688 10687 10687 10688 10690 10692 10696 10700 10703 10707 10714 10723 10731 10740 10750 10764 10776 10786 10794 10801 10809 10818 10829 10839 10849 10856 10862 10868 10876 10884 10892 10900 10908 10914 10917 10919 10923 10928 10932 10935 10939 10944 10949 10953 10957 10961 10965 10968 10971 10974 10977 10979 10980 10982 10984
10802 10800 10799 10798 10797 10796 10794 10792 10790 10787 10784 10780 10776 10772 10767 10761 10755 10749 10743 10737 10731 10724 10718 10711 10705 10699 10694 10690 10688 10686 10685 10685 10685 10685 10684 10684 10685 10686 10689 10692 10695 10698 10703 10711 10719 10728 10737 10747 10760 10772 10781 10790 10799 10808 10815 10821 10830 10840 10847 10854 10864 10873 10880 10888 10896 10902 10908 10913 10916 10920 10924 10928 10931 10936 10941 10946 10950 10953 10957 10961 10965 10969 10972 10975 10977 10978 10980 10983
10800 10798 10797 10796 10795 10793 10791 10789 10787 10784 10780 10777 10773 10768 10763 10757 10751 10745 10739 10734 10728 10721 10714 10707 10702 10696 10692 10688 10686 10684 10682 10682 10682 10682 10682 10682 10682 10683 10686 10689 10692 10697 10703 10709 10716 10724 10734 10745 10757 10767 10775 10785 10796 10804 10810 10817 10825 10832 10838 10848 10858 10865 10872 10879 10886 10893 10901 10908 10913 10917 10920 10924 10927 10932 10938 10943 10947 10951 10954 10958 10962 10966 10969 10972 10975 10977 10979 10981
10797 10796 10795 10794 10792 10790 10788 10786 10783 10780 10777 10773 10769 10765 10760 10755 10748 10742 10736 10731 10725 10718 10711 10705 10699 10694 10689 10686 10684 10682 10681 10680 10680 10680 10680 10680 10680 10680 10682 10686 10689 10694 10700 10706 10713 10721 10729 10739 10751 10761 10770 10781 10791 10797 10803 10812 10821 10827 10836 10845 10852 10858 10866 10873 10880 10889 10897 10904 10909 10913 10916 10920 10924 10929 10934 10939 10944 10948 10952 10956 10960 10963 10966 10969 10973 10975 10977 10979
10795 10794 10793 10791 10789 10788 10786 10783 10780 10777 10774 10770 10766 10762 10757 10752 10746 10740 10734 10729 10722 10716 10709 10703 10697 10692 10687 10684 10682 10681 10680 10679 10679 10678 10678 10678 10678 10678 10680 10683 10686 10690 10696 10702 10709 10717 10725 10735 10747 10756 10765 10776 10786 10791 10796 10804 10814 10823 10834 10842 10847 10854 10862 10870 10878 10885 10892 10899 10904 10908 10912 10916 10920 10925 10930 10935 10940 10945 10949 10953 10957 10961 10964 10967 10971 10973 10975 10977
10792 10792 10790 10788 10786 10784 10782 10780 10777 10774 10771 10767 10763 10758 10754 10749 10744 10738 10732 10726 10720 10714 10708 10702 10696 10691 10686 10682 10681 10680 10679 10677 10677 10676 10677 10677 10676 10677 10679 10681 10684 10688 10693 10699 10705 10711 10720 10731 10741 10751 10762 10772 10779 10783 10791 10800 10807 10815 10824 10831 10837 10846 10854 10863 10872 10879 10885 10891 10896 10901 10907 10912 10917 10921 10926 10931 10937 10942 10947 10951 10955 10958 10962 10965 10968 10971 10973 10975
10789 10789 10788 10786 10784 10782 10780 10778 10775 10771 10768 10764 10759 10755 10750 10746 10741 10736 10730 10723 10718 10713 10707 10701 10695 10689 10685 10681 10680 10679 10677 10676 10675 10675 10675 10675 10675 10675 10678 10681 10684 10687 10692 10697 10702 10708 10715 10726 10737 10748 10758 10768 10774 10780 10788 10797 10803 10808 10814 10819 10827 10838 10848 10857 10865 10872 10878 10884 10889 10896 10903 10909 10914 10919 10923 10928 10933 10939 10943 10948 10952 10956 10959 10963 10966 10968 10971 10973
10786 10786 10785 10783 10781 10780 10777 10775 10772 10769 10765 10761 10756 10751 10747 10743 10738 10733 10727 10721 10717 10712 10707 10701 10695 10689 10684 10680 10679 10678 10676 10674 10673 10674 10674 10674 10674 10675 10677 10680 10683 10687 10691 10695 10701 10706 10712 10721 10732 10743 10752 10760 10768 10775 10782 10790 10796 10801 10806 10814 10825 10835 10842 10850 10859 10867 10873 10880 10886 10894 10901 10906 10911 10916 10921 10925 10930 10935 10941 10945 10949 10953 10956 10959 10962 10965 10968 10970
10782 10783 10782 10780 10778 10776 10774 10771 10768 10765 10762 10758 10753 10749 10745 10741 10736 10730 10725 10720 10716 10711 10706 10700 10694 10688 10683 10680 10678 10677 10675 10673 10673 10673 10673 10673 10674 10674 10676 10679 10682 10685 10689 10694 10700 10704 10710 10717 10727 10737 10746 10752 10760 10768 10775 10783 10788 10794 10804 10815 10824 10830 10837 10847 10858 10866 10873 10879 10886 10893 10898 10904 10909 10914 10919 10923 10927 10933 10938 10942 10946 10949 10952 10955 10958 10961 10964 10967
10780 10779 10779 10777 10775 10773 10771 10768 10765 10762 10758 10755 10751 10747 10743 10739 10735 10729 10724 10719 10715 10710 10705 10700 10694 10688 10683 10679 10677 10676 10675 10673 10673 10673 10673 10673 10674 10674 10675 10677 10680 10684 10687 10691 10696 10701 10707 10715 10725 10735 10743 10748 10755 10762 10770 10777 10784 10794 10806 10815 10822 10829 10838 10850 10859 10865 10872 10879 10885 10891 10896 10902 10908 10912 10917 10921 10926 10931 10935 10939 10942 10946 10948 10951 10954 10958 10961 10964
10778 10777 10776 10774 10772 10770 10767 10765 10762 10759 10756 10752 10748 10744 10740 10736 10733 10729 10724 10719 10714 10710 10705 10699 10694 10688 10683 10679 10676 10675 10675 10673 10673 10673 10673 10673 10674 10673 10674 10676 10679 10683 10686 10689 10694 10698 10705 10713 10722 10732 10738 10744 10751 10759 10768 10777 10786 10797 10807 10815 10823 10832 10842 10852 10858 10863 10870 10877 10884 10890 10894 10901 10907 10911 10915 10919 10922 10927 10931 10934 10938 10942 10946 10949 10953 10956 10960 10963
10776 10775 10773 10771 10769 10767 10764 10762 10759 10756 10753 10750 10746 10743 10738 10734 10730 10727 10723 10718 10713 10709 10705 10700 10694 10688 10683 10679 10676 10675 10674 10673 10672 10673 10673 10673 10674 10674 10674 10675 10678 10682 10686 10689 10692 10697 10702 10710 10719 10728 10734 10742 10751 10759 10767 10778 10788 10798 10807 10815 10823 10831 10839 10847 10852 10857 10865 10872 10879 10884 10889 10896 10903 10907 10910 10914 10917 10921 10926 10928 10932 10936 10941 10945 10949 10954 10957 10959
10773 10772 10770 10768 10767 10765 10762 10760 10757 10753 10750 10748 10744 10741 10737 10732 10728 10724 10720 10716 10712 10707 10704 10700 10694 10688 10683 10679 10676 10674 10673 10673 10673 10672 10672 10673 10674 10674 10675 10675 10677 10680 10684 10688 10691 10695 10701 10707 10716 10724 10731 10741 10752 10760 10768 10777 10784 10793 10803 10811 10819 10826 10832 10839 10844 10852 10860 10867 10872 10878 10884 10891 10898 10901 10905 10909 10912 10916 10920 10923 10926 10930 10935 10939 10944 10948 10951 10954
10770 10769 10767 10765 10764 10762 10759 10757 10754 10750 10747 10745 10742 10738 10734 10730 10727 10722 10717 10714 10711 10707 10703 10699 10694 10688 10683 10679 10676 10674 10672 10672 10672 10671 10671 10671 10672 10673 10675 10676 10677 10680 10682 10685 10689 10693 10699 10705 10713 10721 10728 10739 10751 10759 10767 10772 10776 10784 10796 10805 10812 10819 10826 10834 10840 10847 10854 10861 10867 10873 10880 10887 10892 10896 10900 10905 10908 10912 10916 10919 10921 10925 10931 10936 10940 10944 10947 10950
10766 10765 10764 10762 10760 10758 10756 10753 10751 10748 10744 10741 10739 10735 10731 10728 10726 10722 10717 10713 10709 10706 10703 10698 10693 10688 10683 10679 10676 10673 10671 10671 10671 10671 10671 10671 10672 10673 10674 10675 10677 10678 10680 10684 10688 10692 10697 10703 10709 10717 10725 10735 10746 10753 10760 10765 10770 10778 10788 10797 10804 10811 10819 10828 10835 10842 10850 10856 10861 10868 10874 10879 10885 10890 10895 10900 10904 10907 10911 10915 10918 10922 10928 10933 10937 10940 10943 10946
10762 10761 10760 10758 10756 10755 10752 10750 10748 10745 10741 10737 10735 10732 10729 10725 10723 10721 10716 10712 10708 10705 10701 10697 10693 10688 10683 10679 10675 10673 10671 10670 10670 10671 10671 10671 10672 10673 10674 10675 10676 10677 10679 10681 10686 10691 10695 10700 10707 10714 10722 10731 10741 10747 10752 10757 10764 10773 10782 10789 10795 10803 10812 10821 10829 10838 10845 10849 10854 10861 10866 10871 10876 10883 10889 10894 10898 10902 10907 10912 10917 10921 10924 10929 10933 10937 10940 10943
10758 10757 10755 10754 10753 10751 10749 10747 10744 10741 10738 10735 10732 10729 10726 10723 10721 10718 10715 10711 10707 10703 10700 10696 10691 10687 10683 10679 10675 10672 10670 10669 10669 10670 10670 10670 10671 10672 10673 10674 10675 10676 10677 10679 10683 10687 10692 10698 10704 10711 10719 10727 10735 10741 10746 10752 10759 10768 10778 10786 10793 10800 10807 10816 10824 10832 10837 10841 10848 10855 10859 10863 10869 10876 10883 10888 10892 10897 10902 10908 10914 10918 10919 10922 10927 10932 10936 10940